User: anonymous   Login
Location: Unspecified
(0.0000°N, 0.0000°E)
Time: 09:22:37
(UTC+00:00)
Language:

CSTB 1 - Orbit

View from above orbital plane
View from above orbital plane
View from above satellite
View from above satellite

Ground track
Ground track

The orbit data is extracted from the following two-line orbital elements,

1 31122U 07012F   17086.87475781 +.00000456 +00000-0 +99670-4 0  9998
2 31122 098.0137 048.5169 0079476 024.3528 336.1396 14.60463291528865
Epoch (UTC): 27 March 2017 20:59:39
Eccentricity: 0.0079476
inclination: 98.0137°
perigee height: 635 km
apogee height: 748 km
right ascension of ascending node: 48.5169°
argument of perigee: 24.3528°
revolutions per day: 14.60463291
mean anomaly at epoch: 336.1396°
orbit number at epoch: 52886

The dashed part of the orbit path shows where the satellite is in the earth's shadow,  

DLR